KB6CYS Weather Reports


Display with metric or nautical units.
time (UTC)temp
F
wind
direction
speed
MPH
gust
MPH
rain 1hr
in
rain 24hr
in
rain mn
in
humidity
%
barometer
mb
20260508235524 74 184 5.0 13.0 0.00 0.00 0.00 1012.2
20260508235002 74 211 5.0 13.0 0.00 0.00 0.00 1012.6
20260508234502 75 203 6.0 11.0 0.00 0.00 0.00 1012.9
20260508234002 74 204 5.0 12.0 0.00 0.00 0.00 1012.6
20260508233503 74 191 6.0 12.0 0.00 0.00 0.00 1012.6
20260508233003 74 199 5.0 12.0 0.00 0.00 0.00 1012.6
20260508232523 74 219 6.0 12.0 0.00 0.00 0.00 1012.2
20260508232002 74 220 6.0 11.0 0.00 0.00 0.00 1012.6
20260508231503 75 216 6.0 10.0 0.00 0.00 0.00 1012.2
20260508231002 74 183 5.0 12.0 0.00 0.00 0.00 1012.6
20260508230503 74 219 8.0 12.0 0.00 0.00 0.00 1012.9
20260508230002 74 232 6.0 10.0 0.00 0.00 0.00 1012.9
20260508225502 75 216 6.0 10.0 0.00 0.00 0.00 1012.9
20260508225002 75 190 3.0 12.0 0.00 0.00 0.00 1012.6
20260508224503 74 201 4.0 12.0 0.00 0.00 0.00 1012.9
20260508224003 75 193 5.0 12.0 0.00 0.00 0.00 1013.2
20260508223525 74 203 5.0 12.0 0.00 0.00 0.00 1012.9
20260508223002 74 187 4.0 12.0 0.00 0.00 0.00 1013.6
20260508222503 74 214 6.0 12.0 0.00 0.00 0.00 1012.9
20260508222023 74 211 7.0 14.0 0.00 0.00 0.00 1012.6
20260508221503 73 224 9.0 14.0 0.00 0.00 0.00 1012.6
20260508221025 74 233 8.0 15.0 0.00 0.00 0.00 1012.9
20260508220524 74 224 8.0 15.0 0.00 0.00 0.00 1013.2
20260508220024 73 218 6.0 12.0 0.00 0.00 0.00 1013.6
20260508215503 73 241 6.0 12.0 0.00 0.00 0.00 1013.2
20260508215002 74 224 4.0 13.0 0.00 0.00 0.00 1013.6
20260508214502 74 231 8.0 13.0 0.00 0.00 0.00 1013.2
20260508214002 73 215 5.0 11.0 0.00 0.00 0.00 1013.6
20260508213502 72 284 5.0 12.0 0.00 0.00 0.00 1013.2
20260508213002 74 255 6.0 12.0 0.00 0.00 0.00 1012.9
20260508212502 74 214 5.0 12.0 0.00 0.00 0.00 1012.9
20260508212002 73 204 6.0 12.0 0.00 0.00 0.00 1013.6
20260508211502 72 176 4.0 13.0 0.00 0.00 0.00 1013.9
20260508211003 72 235 7.0 13.0 0.00 0.00 0.00 1013.9
20260508210502 73 218 5.0 11.0 0.00 0.00 0.00 1013.6
20260508210004 73 207 4.0 16.0 0.00 0.00 0.00 1013.6
20260508205502 72 225 7.0 16.0 0.00 0.00 0.00 1013.6
20260508205003 71 229 7.0 11.0 0.00 0.00 0.00 1013.9
20260508204525 71 242 7.0 11.0 0.00 0.00 0.00 1013.9
20260508204004 71 247 5.0 11.0 0.00 0.00 0.00 1013.2
20260508203503 71 258 4.0 11.0 0.00 0.00 0.00 1013.9
20260508203002 73 228 7.0 10.0 0.00 0.00 0.00 1013.6
20260508202524 73 226 3.0 7.0 0.00 0.00 0.00 1013.9
20260508202003 73 125 3.0 8.0 0.00 0.00 0.00 1013.9
20260508201503 73 154 3.0 9.0 0.00 0.00 0.00 1014.3
20260508201003 71 193 3.0 10.0 0.00 0.00 0.00 1013.2
20260508200503 71 197 5.0 12.0 0.00 0.00 0.00 1013.2
20260508200002 70 251 6.0 12.0 0.00 0.00 0.00 1013.2
20260508195502 71 243 4.0 10.0 0.00 0.00 0.00 1013.9
20260508195003 72 185 3.0 9.0 0.00 0.00 0.00 1013.9
20260508194524 72 172 5.0 9.0 0.00 0.00 0.00 1013.9
20260508194002 72 172 4.0 10.0 0.00 0.00 0.00 1014.3
20260508193503 71 165 5.0 10.0 0.00 0.00 0.00 1014.6
20260508193004 69 161 4.0 10.0 0.00 0.00 0.00 1013.9
20260508192502 68 198 5.0 11.0 0.00 0.00 0.00 1013.9
20260508192002 69 210 7.0 11.0 0.00 0.00 0.00 1014.3
20260508191525 68 253 3.0 8.0 0.00 0.00 0.00 1014.3
20260508191002 68 240 3.0 9.0 0.00 0.00 0.00 1014.9
20260508190524 68 223 6.0 9.0 0.00 0.00 0.00 1014.6
20260508190004 70 236 5.0 9.0 0.00 0.00 0.00 1014.6
20260508185503 69 194 4.0 7.0 0.00 0.00 0.00 1014.3
20260508185024 68 178 3.0 7.0 0.00 0.00 0.00 1014.6
20260508184502 67 233 3.0 5.0 0.00 0.00 0.00 1015.3
20260508184004 67 207 2.0 4.0 0.00 0.00 0.00 1014.6
20260508183502 66 292 2.0 4.0 0.00 0.00 0.00 1014.3
20260508183024 66 359 2.0 5.0 0.00 0.00 0.00 1014.9
20260508182503 67 246 2.0 5.0 0.00 0.00 0.00 1014.9
20260508182002 67 243 1.0 8.0 0.00 0.00 0.00 1015.3
20260508181502 66 176 5.0 8.0 0.00 0.00 0.00 1015.6
20260508181002 67 205 2.0 5.0 0.00 0.00 0.00 1015.3
20260508180503 66 208 3.0 5.0 0.00 0.00 0.00 1015.6
20260508180003 66 202 2.0 6.0 0.00 0.00 0.00 1015.3
20260508175523 66 171 1.0 6.0 0.00 0.00 0.00 1014.9
20260508175003 66 206 4.0 6.0 0.00 0.00 0.00 1015.3
20260508174502 65 201 4.0 6.0 0.00 0.00 0.00 1014.9
20260508174002 65 187 1.0 5.0 0.00 0.00 0.00 1014.9
20260508173524 65 269 1.0 5.0 0.00 0.00 0.00 1014.9
20260508173002 65 176 3.0 5.0 0.00 0.00 0.00 1015.3
20260508172524 64 188 2.0 6.0 0.00 0.00 0.00 1014.9
20260508172003 64 191 3.0 6.0 0.00 0.00 0.00 1015.6
20260508171502 64 210 2.0 4.0 0.00 0.00 0.00 1015.3
20260508171023 64 206 2.0 4.0 0.00 0.00 0.00 1015.6
20260508170503 64 195 2.0 7.0 0.00 0.00 0.00 1015.6
20260508170004 64 171 3.0 7.0 0.00 0.00 0.00 1015.3
20260508165502 64 185 3.0 6.0 0.00 0.00 0.00 1015.6
20260508165004 63 184 2.0 5.0 0.00 0.00 0.00 1016.0
20260508164502 63 311 1.0 3.0 0.00 0.00 0.00 1015.6
20260508164002 63 223 1.0 5.0 0.00 0.00 0.00 1015.6
20260508163502 63 138 2.0 5.0 0.00 0.00 0.00 1015.3
20260508163003 63 162 1.0 3.0 0.00 0.00 0.00 1015.3
20260508162502 63 313 1.0 3.0 0.00 0.00 0.00 1015.3
20260508162002 62 97 1.0 3.0 0.00 0.00 0.00 1014.9
20260508161503 62 338 0.0 3.0 0.00 0.00 0.00 1015.6
20260508161024 62 314 1.0 3.0 0.00 0.00 0.00 1015.3
20260508160502 63 245 1.0 3.0 0.00 0.00 0.00 1015.6
20260508160004 63 203 1.0 4.0 0.00 0.00 0.00 1015.6
20260508155503 62 157 2.0 5.0 0.00 0.00 0.00 1015.3
20260508155003 63 197 2.0 5.0 0.00 0.00 0.00 1014.9
20260508154502 62 219 2.0 4.0 0.00 0.00 0.00 1014.9
20260508154003 62 98 2.0 4.0 0.00 0.00 0.00 1015.3
20260508153502 61 136 2.0 4.0 0.00 0.00 0.00 1015.3
20260508153002 61 342 1.0 2.0 0.00 0.00 0.00 1015.3
20260508152524 61 299 0.0 4.0 0.00 0.00 0.00 1014.9
20260508152002 62 92 2.0 4.0 0.00 0.00 0.00 1015.3
20260508151503 61 97 3.0 4.0 0.00 0.00 0.00 1014.6
20260508151002 61 160 2.0 4.0 0.00 0.00 0.00 1015.3
20260508150502 61 181 1.0 5.0 0.00 0.00 0.00 1015.3
20260508150003 61 186 1.0 5.0 0.00 0.00 0.00 1015.6
20260508145524 61 123 1.0 4.0 0.00 0.00 0.00 1014.9
20260508145024 61 65 3.0 5.0 0.00 0.00 0.00 1014.9
20260508144503 61 85 2.0 5.0 0.00 0.00 0.00 1014.6
20260508144003 61 173 1.0 3.0 0.00 0.00 0.00 1014.6
20260508143502 61 198 2.0 5.0 0.00 0.00 0.00 1014.9
20260508143003 61 165 2.0 5.0 0.00 0.00 0.00 1015.3
20260508142502 61 254 1.0 4.0 0.00 0.00 0.00 1014.9
20260508142003 61 193 2.0 5.0 0.00 0.00 0.00 1015.3
20260508141503 60 103 2.0 5.0 0.00 0.00 0.00 1015.6
20260508141002 60 73 2.0 6.0 0.00 0.00 0.00 1014.9
20260508140502 60 66 3.0 6.0 0.00 0.00 0.00 1015.3
20260508140004 60 42 3.0 6.0 0.00 0.00 0.00 1015.3
20260508135502 60 70 3.0 6.0 0.00 0.00 0.00 1014.9
20260508135024 60 82 3.0 5.0 0.00 0.00 0.00 1014.6
20260508134504 60 65 3.0 5.0 0.00 0.00 0.00 1014.9
20260508134002 60 73 3.0 5.0 0.00 0.00 0.00 1015.6
20260508133503 61 83 2.0 3.0 0.00 0.00 0.00 1014.9
20260508133024 61 77 1.0 5.0 0.00 0.00 0.00 1014.9
20260508132523 61 130 1.0 5.0 0.00 0.00 0.00 1015.3
20260508132003 61 137 2.0 5.0 0.00 0.00 0.00 1014.6
20260508131524 61 108 2.0 5.0 0.00 0.00 0.00 1014.9
20260508131023 61 119 2.0 5.0 0.00 0.00 0.00 1014.6
20260508130525 61 126 3.0 6.0 0.00 0.00 0.00 1014.9
20260508130002 61 177 4.0 6.0 0.00 0.00 0.00 1014.6
20260508125502 61 170 3.0 6.0 0.00 0.00 0.00 1014.6
20260508125004 61 165 3.0 6.0 0.00 0.00 0.00 1014.6
20260508124503 61 122 1.0 3.0 0.00 0.00 0.00 1014.6
20260508124004 61 108 2.0 3.0 0.00 0.00 0.00 1014.6
20260508123524 61 173 2.0 3.0 0.00 0.00 0.00 1014.6
20260508123002 61 178 2.0 4.0 0.00 0.00 0.00 1014.6
20260508122503 61 120 2.0 5.0 0.00 0.00 0.00 1014.3
20260508122002 61 79 3.0 5.0 0.00 0.00 0.00 1014.3
20260508121523 61 80 3.0 5.0 0.00 0.00 0.00 1014.3
20260508121003 61 91 3.0 5.0 0.00 0.00 0.00 1014.6
20260508120504 61 149 2.0 4.0 0.00 0.00 0.00 1014.3
20260508120003 61 175 3.0 5.0 0.00 0.00 0.00 1014.6
20260508115523 61 189 2.0 5.0 0.00 0.00 0.00 1014.3
20260508115002 61 168 2.0 4.0 0.00 0.00 0.00 1014.3
20260508114503 61 102 2.0 4.0 0.00 0.00 0.00 1014.6
20260508114024 61 87 2.0 4.0 0.00 0.00 0.00 1014.6
20260508113502 61 102 3.0 4.0 0.00 0.00 0.00 1014.3
20260508113002 61 177 1.0 4.0 0.00 0.00 0.00 1014.3
20260508112503 61 190 2.0 4.0 0.00 0.00 0.00 1014.3
20260508112003 61 144 2.0 6.0 0.00 0.00 0.00 1014.6
20260508111502 61 165 3.0 6.0 0.00 0.00 0.00 1014.9
20260508111002 61 170 2.0 3.0 0.00 0.00 0.00 1014.6
20260508110504 61 65 2.0 3.0 0.00 0.00 0.00 1015.3
20260508110004 61 84 1.0 3.0 0.00 0.00 0.00 1014.6
20260508105503 61 104 1.0 4.0 0.00 0.00 0.00 1014.6
20260508105002 61 105 2.0 5.0 0.00 0.00 0.00 1014.6
20260508104503 61 116 2.0 6.0 0.00 0.00 0.00 1014.6
20260508104003 61 105 3.0 6.0 0.00 0.00 0.00 1014.6
20260508103503 61 117 2.0 5.0 0.00 0.00 0.00 1014.3
20260508103023 61 134 2.0 4.0 0.00 0.00 0.00 1014.6
20260508102502 61 165 1.0 3.0 0.00 0.00 0.00 1014.6
20260508102003 61 199 2.0 4.0 0.00 0.00 0.00 1014.9
20260508101504 61 206 3.0 4.0 0.00 0.00 0.00 1015.3
20260508101002 61 217 0.0 3.0 0.00 0.00 0.00 1015.3
20260508100503 61 99 0.0 3.0 0.00 0.00 0.00 1015.3
20260508100003 61 143 2.0 3.0 0.00 0.00 0.00 1014.9
20260508095502 61 256 0.0 2.0 0.00 0.00 0.00 1014.9
20260508095002 61 268 1.0 4.0 0.00 0.00 0.00 1015.3
20260508094502 61 158 1.0 4.0 0.00 0.00 0.00 1014.6
20260508094003 61 184 1.0 4.0 0.00 0.00 0.00 1014.3
20260508093503 61 118 2.0 4.0 0.00 0.00 0.00 1014.6
20260508093004 61 109 2.0 3.0 0.00 0.00 0.00 1014.9
20260508092502 61 88 1.0 2.0 0.00 0.00 0.00 1014.6
20260508092002 61 269 0.0 3.0 0.00 0.00 0.00 1014.6
20260508091502 60 151 0.0 3.0 0.00 0.00 0.00 1014.6
20260508091002 60 109 1.0 3.0 0.00 0.00 0.00 1014.9
20260508090502 60 97 1.0 3.0 0.00 0.00 0.00 1014.9
20260508090002 60 93 2.0 3.0 0.00 0.00 0.00 1014.6
20260508085523 60 84 2.0 3.0 0.00 0.00 0.00 1014.9
20260508085024 60 106 2.0 3.0 0.00 0.00 0.00 1014.6
20260508084502 60 133 1.0 5.0 0.00 0.00 0.00 1014.6
20260508084003 61 161 2.0 5.0 0.00 0.00 0.00 1014.9
20260508083503 60 189 2.0 7.0 0.00 0.00 0.00 1014.6
20260508083025 60 205 1.0 7.0 0.00 0.00 0.00 1015.3
20260508082502 60 221 4.0 5.0 0.00 0.00 0.00 1016.0
20260508082002 60 218 3.0 4.0 0.00 0.00 0.00 1015.6
20260508081503 60 217 2.0 5.0 0.00 0.00 0.00 1016.0
20260508081002 60 227 3.0 5.0 0.00 0.00 0.00 1015.6
20260508080502 60 191 2.0 4.0 0.00 0.00 0.00 1016.3
20260508080003 60 220 2.0 6.0 0.00 0.00 0.00 1016.3
20260508075502 60 228 2.0 6.0 0.00 0.00 0.00 1016.3
20260508075024 60 222 2.0 5.0 0.00 0.00 0.00 1015.6
20260508074503 60 186 2.0 7.0 0.00 0.00 0.00 1016.0
20260508074002 60 215 3.0 7.0 0.00 0.00 0.00 1015.6
20260508073503 60 213 2.0 5.0 0.00 0.00 0.00 1015.6
20260508073002 60 188 3.0 5.0 0.00 0.00 0.00 1015.6
20260508072524 60 164 2.0 5.0 0.00 0.00 0.00 1016.0
20260508072024 60 175 3.0 5.0 0.00 0.00 0.00 1016.0
20260508071503 60 179 3.0 5.0 0.00 0.00 0.00 1016.3
20260508071002 60 168 3.0 5.0 0.00 0.00 0.00 1016.0
20260508070503 60 169 3.0 5.0 0.00 0.00 0.00 1016.3
20260508070003 60 139 2.0 5.0 0.00 0.00 0.00 1015.6
20260508065503 60 152 2.0 5.0 0.00 0.00 0.00 1016.0
20260508065003 60 166 2.0 7.0 0.00 0.00 0.00 1016.0
20260508064524 60 163 2.0 7.0 0.00 0.00 0.00 1016.0
20260508064002 60 176 3.0 7.0 0.00 0.00 0.00 1015.6
20260508063525 60 168 4.0 7.0 0.00 0.00 0.00 1015.3
20260508063003 60 159 4.0 7.0 0.00 0.00 0.00 1015.6
20260508062502 60 146 3.0 7.0 0.00 0.00 0.00 1015.6
20260508062002 60 164 4.0 7.0 0.00 0.00 0.00 1015.3
20260508061502 60 162 3.0 7.0 0.00 0.00 0.00 1015.6
20260508061002 60 149 2.0 6.0 0.00 0.00 0.00 1015.6
20260508060523 60 175 3.0 8.0 0.00 0.00 0.00 1015.6
20260508060002 60 150 4.0 9.0 0.00 0.00 0.00 1015.6
20260508055524 61 164 4.0 9.0 0.00 0.00 0.00 1014.9
20260508055003 61 149 4.0 7.0 0.00 0.00 0.00 1015.6
20260508054502 61 126 3.0 7.0 0.00 0.00 0.00 1015.3
20260508054002 61 147 3.0 7.0 0.00 0.00 0.00 1015.6
20260508053525 61 143 3.0 6.0 0.00 0.00 0.00 1016.0
20260508053003 61 129 3.0 7.0 0.00 0.00 0.00 1015.3
20260508052503 61 131 3.0 8.0 0.00 0.00 0.00 1015.3
20260508052003 62 153 3.0 8.0 0.00 0.00 0.00 1015.6
20260508051502 62 160 4.0 8.0 0.00 0.00 0.00 1015.6
20260508051024 62 125 3.0 8.0 0.00 0.00 0.00 1016.0
20260508050524 62 164 5.0 8.0 0.00 0.00 0.00 1016.0
20260508050003 62 167 3.0 8.0 0.00 0.00 0.00 1016.0
20260508045503 62 141 3.0 7.0 0.00 0.00 0.00 1015.3
20260508045024 62 135 3.0 6.0 0.00 0.00 0.00 1014.9
20260508044502 62 132 2.0 6.0 0.00 0.00 0.00 1015.6
20260508044002 62 165 3.0 6.0 0.00 0.00 0.00 1015.3
20260508043502 62 148 3.0 7.0 0.00 0.00 0.00 1015.6
20260508043024 62 173 4.0 7.0 0.00 0.00 0.00 1015.3
20260508042502 63 160 3.0 7.0 0.00 0.00 0.00 1015.3
20260508042003 63 164 3.0 7.0 0.00 0.00 0.00 1015.3
20260508041504 63 112 3.0 6.0 0.00 0.00 0.00 1014.9
20260508041003 63 137 2.0 5.0 0.00 0.00 0.00 1015.6
20260508040503 63 161 3.0 5.0 0.00 0.00 0.00 1015.3
20260508040003 63 175 3.0 5.0 0.00 0.00 0.00 1015.3
20260508035503 63 125 2.0 6.0 0.00 0.00 0.00 1015.3
20260508035003 64 166 3.0 6.0 0.00 0.00 0.00 1014.9
20260508034504 64 189 3.0 5.0 0.00 0.00 0.00 1015.3
20260508034002 64 170 3.0 5.0 0.00 0.00 0.00 1014.9
20260508033503 64 183 3.0 7.0 0.00 0.00 0.00 1014.6
20260508033002 64 167 3.0 7.0 0.00 0.00 0.00 1014.3
20260508032503 64 166 3.0 5.0 0.00 0.00 0.00 1014.3
20260508032002 64 159 3.0 8.0 0.00 0.00 0.00 1014.3
20260508031502 65 157 4.0 9.0 0.00 0.00 0.00 1013.9
20260508031002 65 174 4.0 9.0 0.00 0.00 0.00 1014.3
20260508030503 65 170 5.0 9.0 0.00 0.00 0.00 1013.9
20260508030003 65 183 5.0 9.0 0.00 0.00 0.00 1014.3
20260508025502 65 155 4.0 9.0 0.00 0.00 0.00 1013.9
20260508025024 66 167 5.0 11.0 0.00 0.00 0.00 1013.9
20260508024502 67 170 6.0 11.0 0.00 0.00 0.00 1014.3
20260508024025 67 183 5.0 10.0 0.00 0.00 0.00 1013.9
20260508023503 67 190 3.0 9.0 0.00 0.00 0.00 1013.9
20260508023002 68 173 4.0 10.0 0.00 0.00 0.00 1013.6
20260508022504 68 172 5.0 10.0 0.00 0.00 0.00 1013.9
20260508022003 69 159 5.0 10.0 0.00 0.00 0.00 1013.9
20260508021502 70 165 6.0 10.0 0.00 0.00 0.00 1013.9
20260508021003 71 187 5.0 10.0 0.00 0.00 0.00 1013.6
20260508020503 71 158 4.0 12.0 0.00 0.00 0.00 1013.9
20260508020003 72 175 5.0 12.0 0.00 0.00 0.00 1013.6
20260508015505 73 162 4.0 10.0 0.00 0.00 0.00 1014.3
20260508015002 74 172 6.0 9.0 0.00 0.00 0.00 1013.9
20260508014503 74 183 5.0 9.0 0.00 0.00 0.00 1013.9
20260508014003 74 195 6.0 10.0 0.00 0.00 0.00 1013.6
20260508013524 75 177 5.0 11.0 0.00 0.00 0.00 1013.6
20260508013003 75 169 5.0 11.0 0.00 0.00 0.00 1013.9
20260508012524 75 172 6.0 10.0 0.00 0.00 0.00 1013.9
20260508012024 75 174 7.0 10.0 0.00 0.00 0.00 1013.6
20260508011503 75 173 4.0 9.0 0.00 0.00 0.00 1013.2
20260508011002 75 208 5.0 10.0 0.00 0.00 0.00 1013.6
20260508010503 75 211 6.0 11.0 0.00 0.00 0.00 1013.2
20260508010025 75 184 5.0 11.0 0.00 0.00 0.00 1012.9
20260508005502 75 191 6.0 11.0 0.00 0.00 0.00 1013.9
20260508005004 75 180 6.0 12.0 0.00 0.00 0.00 1013.9
20260508004503 75 182 6.0 12.0 0.00 0.00 0.00 1013.6
20260508004002 75 207 6.0 12.0 0.00 0.00 0.00 1013.6
20260508003503 75 206 6.0 12.0 0.00 0.00 0.00 1012.9
20260508003023 75 214 6.0 12.0 0.00 0.00 0.00 1013.2
20260508002503 76 202 6.0 12.0 0.00 0.00 0.00 1012.6
20260508002024 76 178 8.0 12.0 0.00 0.00 0.00 1012.9
20260508001503 76 183 6.0 11.0 0.00 0.00 0.00 1012.6
20260508001003 76 193 7.0 12.0 0.00 0.00 0.00 1012.6
20260508000502 76 180 7.0 12.0 0.00 0.00 0.00 1012.9
20260508000024 78 211 6.0 11.0 0.00 0.00 0.00 1012.9